Content
SEND FEEDBACK

Daily
Averages
Monthly
Summary
United States of America

GRUNDY CENTER, IOWA


Home > North America > United States > Iowa
Elevation: 1020 feet     Latitude: 42 22N     Longitude: 092 46W

WEATHER
 
SELECT A DAY
Number of Records: 187,872;   Date Range: 9/4/96 - 8/12/14
 
SHARE

PRINT THIS DATA

[ ← Previous Day ]
WEATHER ALMANAC - JANUARY 23, 2013
[ Next Day → ]
[ °C ]   °F
Weather ElementAverageHighLow
Temperature16.3 °F28 °F (1:53 pm)3.9 °F (11:53 pm)
Dewpoint5.4 °F14 °F (1:53 pm)-6 °F (11:53 pm)
Humidity62.6 %71 % (7:53 am)56 % (1:53 pm)
Barometer30.30 in30.56 in (11:53 pm)30.21 in (7:53 am)
Wind Speed15.4 mph25.3 mph (5:53 pm)
Wind Gust34.5 mph (6:53 pm)
Weather ElementAverage
Visibility10 mi
Wind DirectionWNW (277.3 °)

Weather ElementTotal
Precipitation---
Heating Degree Days49.1 (Base 65)
Averaged from 22 records on January 23, 2013
WEATHER CONDITIONS BREAKOUT
WIND DIRECTION BREAKOUT
WEATHER BY HOUR - JANUARY 23, 2013
[ °C ]   °F
Local TimeTemperatureDewpointHumidityBarometerVisibilityWind DirectionWind SpeedGust SpeedPrecipitationEventsConditions
1:53 AM12.9 °F3.9 °F67 %30.30 in10.0 miSouth (180°)8.1 mphOvercast
2:53 AM14.0 °F5.0 °F67 %30.30 in10.0 miSouth (190°)6.9 mphOvercast
3:53 AM15.1 °F5.0 °F64 %30.26 in10.0 miSSW (200°)6.9 mphOvercast
4:53 AM15.1 °F5.0 °F64 %30.24 in10.0 miSSW (200°)10.4 mphOvercast
5:53 AM16.0 °F6.1 °F65 %30.22 in10.0 miSSW (200°)10.4 mphOvercast
6:53 AM15.1 °F6.1 °F68 %30.23 in10.0 miSSW (210°)10.4 mphOvercast
7:53 AM14.0 °F6.1 °F71 %30.21 in10.0 miSSW (200°)11.5 mphOvercast
8:53 AM15.1 °F6.1 °F68 %30.22 in10.0 miWSW (240°)10.4 mphClear
9:53 AM17.1 °F8.1 °F68 %30.22 in10.0 miWest (260°)12.7 mphClear
10:53 AM21.0 °F10.0 °F63 %30.22 in10.0 miNW (310°)15.0 mphClear
11:53 AM24.1 °F10.9 °F57 %30.22 in10.0 miNW (320°)12.7 mphClear
12:53 PM26.1 °F12.9 °F58 %30.22 in10.0 miWNW (300°)17.3 mphClear
1:53 PM28.0 °F14.0 °F56 %30.21 in10.0 miNW (320°)19.6 mph26.5 mphPartly Cloudy
2:53 PM27.0 °F12.9 °F56 %30.23 in10.0 miNW (310°)21.9 mph29.9 mphScattered Clouds
3:53 PM24.1 °F10.9 °F57 %30.27 in10.0 miNW (310°)23.0 mph28.8 mphPartly Cloudy
4:53 PM21.0 °F8.1 °F57 %30.30 in10.0 miNNW (330°)19.6 mphClear
5:53 PM16.0 °F3.0 °F57 %30.35 in10.0 miNW (310°)25.3 mph33.4 mphClear
6:53 PM12.0 °F-0.9 °F56 %30.40 in10.0 miNNW (330°)25.3 mph34.5 mphClear
7:53 PM8.1 °F-2.0 °F64 %30.43 in10.0 miNNW (330°)18.4 mph27.6 mphClear
8:53 PM7.0 °F-2.0 °F67 %30.46 in10.0 miNNW (340°)18.4 mphClear
9:53 PM5.0 °F-5.1 °F63 %30.50 in10.0 miNorth (350°)18.4 mph27.6 mphClear
11:53 PM3.9 °F-6.0 °F64 %30.56 in10.0 miNorth (360°)16.1 mphClear
Hourly data recorded from KMIW, located miles away from Grundy Center, Iowa







STORIES FROM OUR PARTNERS